Weather History for Fosston, MN

Change the Weather History Date:

Friday, April 4, 2014

  Actual Average Record
Temperature  
Mean Temperature 32 °F -  
Max Temperature 37 °F 44 °F 69 °F (1991)
Min Temperature 26 °F 23 °F 4 °F (1982)
Degree Days  
Heating Degree Days 34    
Moisture  
Dew Point 27 °F    
Average Humidity 84    
Maximum Humidity 93    
Minimum Humidity 70    
Precipitation  
Precipitation 0.00 in - - ()
Sea Level Pressure  
Sea Level Pressure 29.98 in    
Wind  
Wind Speed 10 mph (NW)    
Max Wind Speed 17 mph    
Max Gust Speed 18 mph    
Visibility 10 miles    
Events      
Averages and records for this station are not official NWS values.
T = Trace of Precipitation, MM = Missing Value Source: NWS Daily Summary

Daily Weather History Graph

Daily Weather History Graph

Search for Another Location

Airport:

Trip Planner

Search our weather history database for the weather conditions in past years. The results will help you decide how hot, cold, wet, or windy it might be!

Date:

Astronomy

Apr. 04, 2014 Rise Set
Actual Time 6:55 AM CDT 7:57 PM CDT
Civil Twilight 6:24 AM CDT 8:28 PM CDT
Nautical Twilight 5:46 AM CDT 9:06 PM CDT
Astronomical Twilight 5:06 AM CDT 9:46 PM CDT
Moon 9:58 AM CDT (4/4) 12:31 AM CDT (4/4)
Length of Visible Light 14h 04m
Length of Day
13h 01m
Waxing Crescent, 25% of the Moon is Illuminated
Apr 4
Waxing Crescent
Apr 7
First Quarter
Apr 15
Full
Apr 22
Last Quarter
Apr 29
New

Hourly Weather History & Observations

Time (CDT) Temp. Windchill Dew Point Humidity Pressure Visibility Wind Dir Wind Speed Gust Speed Precip Events Conditions
12:15 AM 28.4 °F 22.2 °F 26.6 °F 93% 29.96 in 10.0 mi North 5.8 mph - N/A   Overcast
12:35 AM 30.2 °F 22.6 °F 26.6 °F 86% 29.95 in 10.0 mi NNW 8.1 mph - N/A   Overcast
12:55 AM 30.2 °F 23.4 °F 26.6 °F 86% 29.95 in 10.0 mi NNW 6.9 mph - N/A   Overcast
1:15 AM 30.2 °F 22.6 °F 26.6 °F 86% 29.95 in 10.0 mi North 8.1 mph - N/A   Overcast
1:35 AM 30.2 °F 21.3 °F 26.6 °F 86% 29.95 in 10.0 mi North 10.4 mph - N/A   Overcast
1:55 AM 30.2 °F 21.3 °F 26.6 °F 86% 29.94 in 10.0 mi North 10.4 mph - N/A   Overcast
2:15 AM 30.2 °F 21.3 °F 26.6 °F 86% 29.94 in 10.0 mi North 10.4 mph - N/A   Overcast
2:35 AM 30.2 °F 21.9 °F 26.6 °F 86% 29.93 in 10.0 mi North 9.2 mph - N/A   Overcast
2:55 AM 30.2 °F 21.9 °F 26.6 °F 86% 29.93 in 10.0 mi NNW 9.2 mph - N/A   Overcast
3:15 AM 30.2 °F 21.3 °F 26.6 °F 86% 29.92 in 10.0 mi NNW 10.4 mph - N/A   Overcast
3:35 AM 28.4 °F 19.7 °F 26.6 °F 93% 29.93 in 10.0 mi NNW 9.2 mph - N/A   Overcast
3:55 AM 28.4 °F 18.5 °F 26.6 °F 93% 29.93 in 10.0 mi NNW 11.5 mph - N/A   Overcast
4:15 AM 28.4 °F 18.0 °F 26.6 °F 93% 29.93 in 10.0 mi NNW 12.7 mph - N/A   Overcast
4:35 AM 28.4 °F 17.5 °F 26.6 °F 93% 29.93 in 10.0 mi North 13.8 mph - N/A   Overcast
4:55 AM 28.4 °F 18.0 °F 26.6 °F 93% 29.93 in 10.0 mi NNW 12.7 mph - N/A   Overcast
5:15 AM 28.4 °F 17.0 °F 26.6 °F 93% 29.93 in 10.0 mi NNW 15.0 mph - N/A   Overcast
5:35 AM 28.4 °F 17.5 °F 26.6 °F 93% 29.93 in 10.0 mi North 13.8 mph 18.4 mph N/A   Overcast
5:55 AM 28.4 °F 18.5 °F 26.6 °F 93% 29.94 in 10.0 mi NNW 11.5 mph - N/A   Overcast
6:15 AM 28.4 °F 17.0 °F 26.6 °F 93% 29.94 in 10.0 mi NNW 15.0 mph - N/A   Overcast
6:35 AM 28.4 °F 18.0 °F 26.6 °F 93% 29.94 in 10.0 mi NNW 12.7 mph - N/A   Overcast
6:55 AM 28.4 °F 16.6 °F 26.6 °F 93% 29.94 in 10.0 mi NNW 16.1 mph - N/A   Overcast
7:15 AM 28.4 °F 18.0 °F 26.6 °F 93% 29.95 in 7.0 mi NNW 12.7 mph - N/A   Overcast
7:35 AM 28.4 °F 17.0 °F 26.6 °F 93% 29.95 in 10.0 mi NNW 15.0 mph - N/A   Overcast
7:55 AM 28.4 °F 16.2 °F 26.6 °F 93% 29.96 in 10.0 mi NNW 17.3 mph - N/A   Overcast
8:15 AM 28.4 °F 16.6 °F 26.6 °F 93% 29.97 in 10.0 mi North 16.1 mph - N/A   Overcast
8:35 AM 30.2 °F 19.8 °F 26.6 °F 86% 29.97 in 10.0 mi North 13.8 mph - N/A   Overcast
8:55 AM 30.2 °F 20.2 °F 26.6 °F 86% 29.97 in 10.0 mi NNW 12.7 mph - N/A   Overcast
9:15 AM 30.2 °F 20.8 °F 26.6 °F 86% 29.98 in 10.0 mi North 11.5 mph - N/A   Overcast
9:35 AM 30.2 °F 20.2 °F 26.6 °F 86% 29.98 in 10.0 mi NNW 12.7 mph - N/A   Overcast
9:55 AM 30.2 °F 20.2 °F 26.6 °F 86% 29.98 in 10.0 mi North 12.7 mph - N/A   Overcast
10:15 AM 30.2 °F 20.8 °F 26.6 °F 86% 29.98 in 10.0 mi North 11.5 mph - N/A   Overcast
10:35 AM 32.0 °F 24.2 °F 26.6 °F 80% 29.99 in 10.0 mi NNW 9.2 mph - N/A   Overcast
10:55 AM 33.8 °F 25.3 °F 26.6 °F 75% 29.99 in 10.0 mi NNW 11.5 mph - N/A   Overcast
11:15 AM 33.8 °F 24.8 °F 26.6 °F 75% 29.99 in 10.0 mi NW 12.7 mph - N/A   Overcast
11:35 AM 33.8 °F 26.4 °F 28.4 °F 81% 29.99 in 10.0 mi NW 9.2 mph - N/A   Overcast
11:55 AM 33.8 °F 25.8 °F 28.4 °F 81% 29.99 in 10.0 mi NW 10.4 mph - N/A   Overcast
12:15 PM 33.8 °F 25.8 °F 28.4 °F 81% 29.99 in 10.0 mi NW 10.4 mph - N/A   Overcast
12:35 PM 35.6 °F 27.5 °F 26.6 °F 70% 29.98 in 10.0 mi NW 11.5 mph - N/A   Overcast
12:55 PM 35.6 °F 28.6 °F 28.4 °F 75% 29.98 in 10.0 mi NW 9.2 mph - N/A   Mostly Cloudy
1:15 PM 35.6 °F 27.5 °F 28.4 °F 75% 29.98 in 10.0 mi NNW 11.5 mph - N/A   Scattered Clouds
1:55 PM 37.4 °F 30.8 °F 28.4 °F 70% 29.98 in 10.0 mi WNW 9.2 mph - N/A   Mostly Cloudy
2:15 PM 37.4 °F 29.8 °F 28.4 °F 70% 29.97 in 10.0 mi WNW 11.5 mph - N/A   Overcast
2:35 PM 37.4 °F 30.3 °F 28.4 °F 70% 29.97 in 10.0 mi NW 10.4 mph - N/A   Overcast
2:55 PM 37.4 °F 30.3 °F 28.4 °F 70% 29.98 in 10.0 mi WNW 10.4 mph - N/A   Mostly Cloudy
3:15 PM 37.4 °F 30.3 °F 28.4 °F 70% 29.97 in 10.0 mi WNW 10.4 mph - N/A   Mostly Cloudy
3:35 PM 37.4 °F 30.3 °F 28.4 °F 70% 29.97 in 10.0 mi NW 10.4 mph - N/A   Mostly Cloudy
3:55 PM 35.6 °F 28.0 °F 28.4 °F 75% 29.97 in 10.0 mi WNW 10.4 mph - N/A   Mostly Cloudy
4:15 PM 35.6 °F 28.6 °F 28.4 °F 75% 29.98 in 10.0 mi WNW 9.2 mph - N/A   Overcast
4:35 PM 35.6 °F 29.2 °F 28.4 °F 75% 29.98 in 10.0 mi WNW 8.1 mph - N/A   Mostly Cloudy
4:55 PM 35.6 °F 28.0 °F 28.4 °F 75% 29.99 in 10.0 mi WNW 10.4 mph - N/A   Mostly Cloudy
5:15 PM 35.6 °F 28.0 °F 28.4 °F 75% 29.99 in 10.0 mi WNW 10.4 mph - N/A   Scattered Clouds
5:35 PM 35.6 °F 28.0 °F 28.4 °F 75% 30.00 in 10.0 mi West 10.4 mph - N/A   Clear
5:55 PM 35.6 °F 28.0 °F 28.4 °F 75% 30.00 in 10.0 mi WNW 10.4 mph - N/A   Clear
6:15 PM 35.6 °F 27.5 °F 28.4 °F 75% 30.01 in 10.0 mi West 11.5 mph - N/A   Scattered Clouds
6:35 PM 33.8 °F 27.0 °F 26.6 °F 75% 30.01 in 10.0 mi West 8.1 mph - N/A   Scattered Clouds
6:55 PM 33.8 °F 26.4 °F 26.6 °F 75% 30.01 in 10.0 mi West 9.2 mph - N/A   Scattered Clouds
7:15 PM 33.8 °F 28.6 °F 26.6 °F 75% 30.02 in 10.0 mi West 5.8 mph - N/A   Overcast
7:35 PM 32.0 °F 26.4 °F 26.6 °F 80% 30.02 in 10.0 mi West 5.8 mph - N/A   Overcast
7:55 PM 30.2 °F 25.4 °F 24.8 °F 80% 30.02 in 10.0 mi WSW 4.6 mph - N/A   Overcast
8:15 PM 28.4 °F 23.3 °F 24.8 °F 86% 30.02 in 10.0 mi West 4.6 mph - N/A   Overcast
8:35 PM 28.4 °F - 24.8 °F 86% 30.02 in 10.0 mi Calm Calm - N/A   Overcast
8:55 PM 28.4 °F 22.2 °F 24.8 °F 86% 30.02 in 10.0 mi WSW 5.8 mph - N/A   Overcast
9:15 PM 28.4 °F 22.2 °F 24.8 °F 86% 30.03 in 10.0 mi West 5.8 mph - N/A   Overcast
9:35 PM 28.4 °F 22.2 °F 24.8 °F 86% 30.03 in 10.0 mi SW 5.8 mph - N/A   Unknown
9:55 PM 28.4 °F 20.4 °F 24.8 °F 86% 30.03 in 10.0 mi WSW 8.1 mph - N/A   Overcast
10:15 PM 28.4 °F 22.2 °F 24.8 °F 86% 30.03 in 10.0 mi SW 5.8 mph - N/A   Overcast
10:35 PM 26.6 °F 22.6 °F 24.8 °F 93% 30.03 in 10.0 mi WSW 3.5 mph - N/A   Overcast
10:55 PM 26.6 °F 20.0 °F 24.8 °F 93% 30.02 in 10.0 mi SW 5.8 mph - N/A   Overcast
11:15 PM 26.6 °F 18.2 °F 24.8 °F 93% 30.02 in 10.0 mi South 8.1 mph - N/A   Overcast
11:35 PM 26.6 °F 17.5 °F 24.8 °F 93% 30.01 in 10.0 mi South 9.2 mph - N/A   Overcast
11:55 PM 26.6 °F 18.2 °F 24.8 °F 93% 30.00 in 10.0 mi SSW 8.1 mph - N/A   Overcast